Regional Weather Roundup
Issued by NWS

Home | Current Version | Previous Version | Text Only | Print | Product List | Glossary Off
Versions: 1 2 3 4 5 6 7 8 9 10 11 12 13 14 15 16 17 18 19 20 21 22 23 24 25 26 27 28 29 30 31 32 33 34 35 36 37 38 39 40 41 42 43 44 45 46 47 48 49 50

000
ASUS43 KMPX 102001
RWRMN
WEATHER ROUNDUP FOR MINNESOTA
NATIONAL WEATHER SERVICE TWIN CITIES/CHANHASSEN MN
300 PM CDT THU JUL 10 2014


NOTE: "FAIR" INDICATES FEW OR NO CLOUDS BELOW 12,000 FEET WITH NO
SIGNIFICANT WEATHER AND/OR OBSTRUCTIONS TO VISIBILITY. N/A MEANS
CURRENT SKY AND/OR WEATHER CONDITIONS ARE NOT AVAILABLE.

MNZ060>063-068>070-102100-
   Twin Cities Metro

CITY           SKY/WX    TMP DP  RH WIND       PRES   REMARKS
TWIN CITIES    MOSUNNY   84  61  45 S10       30.00F
ST PAUL        MOSUNNY   82  63  52 S8        30.00F
CRYSTAL        MOSUNNY   84  61  45 S12       29.98F
LAKEVILLE      MOSUNNY   81  61  50 S5        30.01F
EDEN PRAIRIE   MOSUNNY   83  60  45 S15       29.99F
SOUTH ST PAUL  MOSUNNY   83  61  47 S7        30.00F
LAKE ELMO      FAIR      81  66  61 S7        30.03S
$$
MNZ001>005-007-008-013>017-022>024-027-028-102100-
   Northwest Minnesota

CITY           SKY/WX    TMP DP  RH WIND       PRES   REMARKS
BEMIDJI        MOSUNNY   77  56  48 S9        29.96S
HALLOCK        CLOUDY    81  61  50 S13G22    29.86F
ROSEAU         PTSUNNY   79  61  53 S12       29.91F
WARROAD        MOSUNNY   79  61  53 SW8G17    29.92F HAZE
THIEF RVR FALL PTSUNNY   79  55  44 S13       29.91S
CROOKSTON      CLOUDY    77  57  50 S13       29.90F
FOSSTON        PTSUNNY   79  57  47 S10       29.94S
DETROIT LAKES  CLOUDY    77  61  57 S9        29.95F
MOORHEAD       CLOUDY    82  59  44 SE16      29.90F
PARK RAPIDS    PTSUNNY   79  57  46 S10       29.96F
$$
MNZ006-009>011-018-025>026-102100-
   North Central Minnesota

CITY           SKY/WX    TMP DP  RH WIND       PRES   REMARKS
BAUDETTE       SUNNY     78  57  48 S10       29.94F
FLAG ISLAND    SUNNY     72  59  64 SE9       29.91F
INTL FALLS     SUNNY     78  51  38 VRB6      29.95F
LONGVILLE      SUNNY     79  57  47 SE9       29.97F
GRAND RAPIDS   SUNNY     77  54  44 S10       29.99F
CRANE LAKE     SUNNY     75  46  35 S7G16     29.98F
ORR            SUNNY     79  46  31 S8G16     29.95F
COOK           SUNNY     79  52  38 S6        29.98F
$$
MNZ012-019>021-037-102100-
   Northeast Minnesota

CITY           SKY/WX    TMP DP  RH WIND       PRES   REMARKS
DULUTH         MOSUNNY   78  57  48 S9        30.02F
ELY            SUNNY     75  48  38 SW8G17    30.00F
HIBBING        SUNNY     81  49  32 SW9       29.99F
EVELETH        MOSUNNY   77  52  41 S13G18    30.01F
DULUTH HARBOR  SUNNY     59  54  82 NE8       30.03F
TWO HARBORS    SUNNY     73  57  56 SE6       30.01F
SILVER BAY     SUNNY     72  63  73 SE6       30.02F
GRAND MARAIS     N/A     55  47  74 E5        30.06F
G MARAIS ARPRT SUNNY     70  52  52 S9        30.08F
$$
MNZ029>031-032-039>041-046>048-054>057-064-102100-
   West Central Minnesota

CITY           SKY/WX    TMP DP  RH WIND       PRES   REMARKS
FERGUS FALLS   CLOUDY    81  57  44 S14G21    29.91F
WHEATON        CLOUDY    79  61  53 S13       29.91F
MORRIS         CLOUDY    79  64  61 S12       29.92S
ALEXANDRIA     CLOUDY    81  59  47 S17       29.97F
WADENA         PTSUNNY   79  61  53 S8        29.96S
GLENWOOD       CLOUDY    79  63  57 SE13      29.97F
APPLETON       CLOUDY    84  63  48 S10G18    29.91F
BENSON         CLOUDY    82  63  51 SW15      29.93F
ORTONVILLE     CLOUDY    82  63  51 S10G16    29.91F
MADISON        CLOUDY    84  64  51 S13       29.92F
WILLMAR        FAIR      84  59  42 S7        29.97F
$$
MNZ033>034-036-042>043-049>051-058-059-102100-
   Central Minnesota

CITY           SKY/WX    TMP DP  RH WIND       PRES   REMARKS
ST CLOUD       MOSUNNY   85  60  42 S10       29.97F
SAUK CENTRE    FAIR      81  60  49 S10       29.97S
PAYNESVILLE    PTSUNNY   78  61  54 SE10      29.97S HAZE
AITKIN         SUNNY     81  59  47 S8        29.98F
PINE RIVER     MOSUNNY   79  59  50 S10       30.00F
BRAINERD       MOSUNNY   85  58  39 S10       29.98F
STAPLES        PTSUNNY   79  57  47 S9G17     29.97S
LONG PRAIRIE   FAIR      79  61  53 S12       29.98S
LITTLE FALLS   MOSUNNY   81  55  41 S12       29.97F
LITCHFIELD     MOSUNNY   82  61  47 S7        29.97F
BUFFALO        MOSUNNY   83  60  46 SE10      30.00S
MAPLE LAKE     MOSUNNY   84  62  48 S7        29.99F
$$
MNZ037-044-045-052-053-102100-
   East Central Minnesota

CITY           SKY/WX    TMP DP  RH WIND       PRES   REMARKS
PRINCETON      MOSUNNY   84  61  45 S12       30.00S
MORA           SUNNY     79  55  44 SE9       30.02F
CAMBRIDGE      MOSUNNY   84  64  51 S12       29.99S
RUSH CITY      SUNNY     81  61  51 S8        30.01F
MOOSE LAKE     MOSUNNY   79  55  44 SW5       29.99F
HINCKLEY       FAIR      81  61  50 S8        30.01F
CLOQUET        MOSUNNY   79  52  38 S9        30.01F
MCGREGOR       SUNNY     79  57  47 S6        30.00F
$$
MNZ071>073-080-081-089-090-097-098-102100-
   Southwest Minnesota

CITY           SKY/WX    TMP DP  RH WIND       PRES   REMARKS
MONTEVIDEO     CLOUDY    84  63  48 S9        29.94F
GRANITE FALLS  CLOUDY    82  61  47 SE18      29.96S
CANBY          CLOUDY    82  63  51 S14       29.93F
MARSHALL       CLOUDY    82  61  47 S17G25    29.94F
REDWOOD FALLS  PTSUNNY   85  61  44 S16G25    29.96F
OLIVIA         PTSUNNY   82  61  47 S13G20    29.97R
PIPESTONE      MOSUNNY   81  63  54 S17       29.96F
WINDOM         MOSUNNY   82  61  47 S14       29.99S
WORTHINGTON    PTSUNNY   81  64  57 S17G25    30.01S
JACKSON        SUNNY     82  59  44 S17       30.01S
TRACY          PTSUNNY   83  62  49 S15G21    29.97S
SLAYTON        PTSUNNY   82  60  45 S16G23    29.99S
$$
MNZ065>067-074>077-082>085-091>093-102100-
   South Central Minnesota

CITY           SKY/WX    TMP DP  RH WIND       PRES   REMARKS
MANKATO        MOSUNNY   82  57  42 SW16G24   30.00F
NEW ULM        MOSUNNY   82  63  51 S17       29.98F
FAIRMONT       SUNNY     82  55  39 S15G23    30.01S
GLENCOE        MOSUNNY   85  56  36 SE10G18   29.98F
FARIBAULT      SUNNY     86  54  32 S9G17     30.03F
OWATONNA       MOSUNNY   82  59  44 S13G21    30.04S
WASECA         MOSUNNY   81  52  36 S15       30.05S
ALBERT LEA     SUNNY     82  55  39 S14G21    30.04F
$$
MNZ078>079-086>088-094>096-102100-
   Southeast Minnesota

CITY           SKY/WX    TMP DP  RH WIND       PRES   REMARKS
ROCHESTER      MOSUNNY   79  63  57 SW13      30.07F
RED WING       MOSUNNY   84  63  48 S6        30.01F
STANTON        MOSUNNY   83  60  45 SW10G17   30.01S
DODGE CENTER   SUNNY     81  61  50 S13       30.06S
WINONA         SUNNY     81  63  54 S8        30.05F
AUSTIN         MOSUNNY   81  57  44 S14G20    30.06S
PRESTON        MOSUNNY   80  63  56 SW12      30.08F
$$
ABBREVIATIONS USED IN REMARKS
   TC - TEMPERATURES IN CELSIUS
  WCI - WIND CHILL INDEX
   HX - HEAT INDEX
  VSB - VISIBILITY
$$


USA.gov is the U.S. government's official web portal to all federal, state and local government web resources and services.